This is the latest recevied weather packets stored in our database for station/object SA7AHC. If no packets are shown the sender has not sent any weather packets the latest 10 day(s).
| Time | Temp. | Humidity | Pressure | Rain* | Wind** | Luminosity | Snow |
|---|---|---|---|---|---|---|---|
| 1778114912 | 1.11° C | 78% | 1014.1 hPa | 0 mm | - | 0 W/m² | - |
| 1778114312 | 1.11° C | 77% | 1014.1 hPa | 0 mm | - | 0 W/m² | - |
| 1778113712 | 1.11° C | 77% | 1014.1 hPa | 0 mm | - | 0 W/m² | - |
| 1778113112 | 1.11° C | 78% | 1014.1 hPa | 0 mm | - | 0 W/m² | - |
| 1778112515 | 1.11° C | 78% | 1014.1 hPa | 0 mm | - | 0 W/m² | - |
| 1778111914 | 1.11° C | 77% | 1014.1 hPa | 0 mm | - | 0 W/m² | - |
| 1778111312 | 1.11° C | 76% | 1014.1 hPa | 0 mm | - | 0 W/m² | - |
| 1778110705 | 1.11° C | 75% | 1014.1 hPa | 0 mm | - | 0 W/m² | - |
| 1778110097 | 0.56° C | 74% | 1014.2 hPa | 0 mm | - | 0 W/m² | - |
| 1778109492 | 0.56° C | 75% | 1014.2 hPa | 0 mm | - | 0 W/m² | - |
| 1778108885 | 1.11° C | 75% | 1014.2 hPa | 0 mm | - | 0 W/m² | - |
| 1778108290 | 0.56° C | 76% | 1014.1 hPa | 0 mm | - | 0 W/m² | - |
| 1778107687 | 0.56° C | 75% | 1014.1 hPa | 0 mm | - | 0 W/m² | - |
| 1778107087 | 0.56° C | 75% | 1014.1 hPa | 0 mm | - | 0 W/m² | - |
| 1778106486 | 0.56° C | 73% | 1013.9 hPa | 0 mm | - | 0 W/m² | - |
| 1778105886 | 0.56° C | 72% | 1013.7 hPa | 0 mm | - | 0 W/m² | - |
| 1778105283 | 1.11° C | 70% | 1013.9 hPa | 0 mm | - | 0 W/m² | - |
| 1778104690 | 1.67° C | 67% | 1013.7 hPa | 0 mm | - | 0 W/m² | - |
| 1778104086 | 1.11° C | 68% | 1013.6 hPa | 0 mm | - | 0 W/m² | - |
| 1778103486 | 1.67° C | 68% | 1013.6 hPa | 0 mm | - | 0 W/m² | - |
| 1778102869 | 1.67° C | 66% | 1013.6 hPa | 0 mm | - | 0 W/m² | - |
| 1778102264 | 2.22° C | 65% | 1013.7 hPa | 0 mm | - | 0 W/m² | - |
| 1778101667 | 3.33° C | 62% | 1013.5 hPa | 0 mm | - | 0 W/m² | - |
| 1778101055 | 3.33° C | 58% | 1013.5 hPa | 0 mm | - | 0 W/m² | - |
| 1778100450 | 3.33° C | 60% | 1013.4 hPa | 0 mm | - | 0 W/m² | - |
* Rain latest hour (hover to see other rain measurements)
** Current wind speed in m/s (hover to see current wind gust speed)